sat.trackr.live / text

‹ back to catalog

OBSERVER-1A

NORAD 58323 · 2023-174BV

PAYLOAD ACTIVE UNKNOWN

§ Identity

Operator
Country
SKOR
Launch date
2023-11-11
Launch site
AFWTR
Launch vehicle
Mass (kg)
RCS (m²)

External: N2YO · Heavens-Above · Gunter

§ Orbital elements

Epoch: 2026-09-21T22:31:45.738912Z

Period
93.48 min
Inclination
97.3893°
Eccentricity
0.0008298
Mean motion
15.40488861 rev/d
Perigee alt
439.0 km
Apogee alt
450.3 km
Semi-major
6,822.8 km
B*
2.1173e-4
RAAN
349.6298°
Arg perigee
157.9935°
Mean anomaly
202.1670°
Rev number
16,009

§ Raw data

OBSERVER-1A1 58323U 23174BV  26264.93872383  .00008508  00000+0  21173-3 0  99982 58323  97.3893 349.6298 0008298 157.9935 202.1670 15.40488861160098

JSON: /api/v1/satellites/58323 · /tle

For live sub-satellite position, see the globe view (requires WebGL).

§ Visibility from observer

Set your observer location to see the next 7 days of passes ≥ 10°. The values pass through the URL so the page stays shareable.

No JS? Fill the form by hand. The geolocation button needs JavaScript.

§ Radio — SatNOGS DB

ModeDescriptionDownlinkUplink
FM S-band telemetry 2.246 GHz

1 transmitter · refreshed weekly from db.satnogs.org